Weather History for Maun, Botswana

Change the Weather History Date:

Friday, May 10, 2013

  Actual Average Record
Temperature  
Mean Temperature 70 °F -  
Max Temperature 87 °F 80 °F 87 °F (2003)
Min Temperature 52 °F 51 °F 50 °F (2002)
Cooling Degree Days 4    
Growing Degree Days 20 (Base 50)    
Moisture  
Dew Point 41 °F    
Average Humidity 38    
Maximum Humidity 62    
Minimum Humidity 12    
Precipitation  
Precipitation 0.00 in - - ()
Sea Level Pressure  
Sea Level Pressure 30.09 in    
Wind  
Wind Speed 3 mph ()    
Max Wind Speed 10 mph    
Max Gust Speed -    
Visibility 6.0 miles    
Events      
Averages and records for this station are not official NWS values.
T = Trace of Precipitation, MM = Missing Value Source: Averaged Metar Reports

Daily Weather History Graph

Daily Weather History Graph

Search for Another Location

Airport:

Trip Planner

Search our weather history database for the weather conditions in past years. The results will help you decide how hot, cold, wet, or windy it might be!

Date:

Astronomy

May. 10, 2013 Rise Set
Actual Time 6:45 AM CAT 5:59 PM CAT
Civil Twilight 6:22 AM CAT 6:22 PM CAT
Nautical Twilight 5:55 AM CAT 6:49 PM CAT
Astronomical Twilight 5:29 AM CAT 7:15 PM CAT
Moon 6:58 AM CAT (5/10) 6:25 PM CAT (5/10)
Length of Visible Light 12h 00m
Length of Day
11h 14m
Waxing Crescent, 0% of the Moon is Illuminated
May 10
Waxing Crescent
May 18
First Quarter
May 25
Full
May 31
Last Quarter
Jun 8
New

Hourly Weather History & Observations

Time (CAT) Temp. Dew Point Humidity Pressure Visibility Wind Dir Wind Speed Gust Speed Precip Events Conditions
12:00 AM 59.0 °F 39.2 °F 48% 30.09 in - Variable 2.3 mph - N/A   Clear
1:00 AM 57.2 °F 39.2 °F 51% 30.09 in - Variable 1.2 mph - N/A   Clear
2:00 AM 56 °F 41 °F 45%  in 6 mi NNE 2.3 mph - -  
3:00 AM 53.6 °F 41.0 °F 62% 30.09 in - Variable 2.3 mph - N/A   Clear
4:00 AM 53.6 °F 39.2 °F 58% 30.06 in - NE 3.5 mph - N/A   Clear
5:00 AM 53.6 °F 39.2 °F 58% 30.09 in - East 5.8 mph - N/A   Clear
6:00 AM 57.2 °F 39.2 °F 51% 30.09 in - East 5.8 mph - N/A   Clear
7:00 AM 57.2 °F 37.4 °F 48% 30.12 in - ENE 6.9 mph - N/A   Clear
8:00 AM 61 °F 37 °F 30%  in 6 mi NE 4.6 mph - -  
8:00 AM 60.8 °F 37.4 °F 42% 30.15 in - NE 4.6 mph - N/A   Clear
9:00 AM 68.0 °F 41.0 °F 37% 30.15 in - North 3.5 mph - N/A   Clear
12:00 PM 82.4 °F 41.0 °F 23% 30.15 in - NE 10.4 mph - N/A   Clear
1:00 PM 84.2 °F 39.2 °F 20% 30.12 in - ENE 8.1 mph - N/A   Clear
2:00 PM 86 °F 41 °F 12%  in 6 mi NNW 4.6 mph - -   Partly Cloudy
2:00 PM 86.0 °F 41.0 °F 20% 30.09 in - NNW 4.6 mph - N/A   Clear
3:00 PM 87.8 °F 41.0 °F 19% 30.04 in - Calm Calm - N/A   Clear
4:00 PM 86.0 °F 41.0 °F 20% 30.04 in - WSW 10.4 mph - N/A   Clear
5:00 PM 86.0 °F 44.6 °F 23% 30.04 in - Variable 3.5 mph - N/A   Clear
6:00 PM 80.6 °F 48.2 °F 32% 30.06 in - WNW 3.5 mph - N/A   Clear
7:00 PM 75.2 °F 48.2 °F 38% 30.06 in - WNW 3.5 mph - N/A   Clear
8:00 PM 71.6 °F 50.0 °F 46% 30.09 in - Variable 2.3 mph - N/A   Clear
11:00 PM 62.6 °F 42.8 °F 48% 30.09 in - Variable 2.3 mph - N/A   Clear